Kenosha, WI

9:13 AM CST on February 25, 2017 (GMT -0600)
Kenosha Regional

Weather History for KENW - February, 2014

Change the Weather History Date:

Tuesday, February 11, 2014

  Actual Average Record
Temperature  
Mean Temperature 2 °F -  
Max Temperature 12 °F 29 °F 66 °F (1999)
Min Temperature -9 °F 16 °F -9 °F (2014)
Degree Days  
Heating Degree Days 64    
Moisture  
Dew Point -8 °F    
Average Humidity 64    
Maximum Humidity 79    
Minimum Humidity 47    
Precipitation  
Precipitation 0.00 in - - ()
Sea Level Pressure  
Sea Level Pressure 30.48 in    
Wind  
Wind Speed 5 mph (WSW)    
Max Wind Speed 9 mph    
Max Gust Speed -    
Visibility 10 miles    
Events      
Averages and records for this station are not official NWS values.
T = Trace of Precipitation, MM = Missing Value Source: NWS Daily Summary

Daily Weather History Graph

Daily Weather History Graph

Search for Another Location

Airport or City:

Trip Planner

Search our weather history database for the weather conditions in past years. The results will help you decide how hot, cold, wet, or windy it might be!

Date:

Astronomy

Feb. 11, 2014 Rise Set
Actual Time 6:53 AM CST 5:18 PM CST
Civil Twilight 6:24 AM CST 5:47 PM CST
Nautical Twilight 5:51 AM CST 6:20 PM CST
Astronomical Twilight 5:18 AM CST 6:53 PM CST
Moon 2:37 PM CST (2/11) 4:32 AM CST (2/11)
Length of Visible Light 11h 22m
Length of Day
10h 24m
Waxing Gibbous, 91% of the Moon is Illuminated
Feb 11
Waxing Gibbous
Feb 14
Full
Feb 22
Last Quarter
Mar 1
New
Mar 8
First Quarter

Hourly Weather History & Observations

Time (CST) Temp. Windchill Dew Point Humidity Pressure Visibility Wind Dir Wind Speed Gust Speed Precip Events Conditions
12:53 AM -5.1 °F -15.8 °F -11.9 °F 72% 30.50 in 10.0 mi WNW 4.6 mph - N/A   Clear
1:53 AM -5.1 °F -13.6 °F -13.0 °F 69% 30.50 in 10.0 mi WNW 3.5 mph - N/A   Clear
2:53 AM -5.1 °F -13.6 °F -13.0 °F 69% 30.49 in 10.0 mi WNW 3.5 mph - N/A   Clear
3:53 AM -9.0 °F -22.3 °F -14.1 °F 79% 30.50 in 10.0 mi West 5.8 mph - N/A   Clear
4:53 AM -9.9 °F -24.9 °F -15.0 °F 78% 30.51 in 10.0 mi WNW 6.9 mph - N/A   Clear
5:53 AM -9.0 °F -20.4 °F -14.1 °F 79% 30.52 in 10.0 mi WNW 4.6 mph - N/A   Clear
6:53 AM -9.9 °F -23.4 °F -15.0 °F 78% 30.53 in 10.0 mi West 5.8 mph - N/A   Clear
7:53 AM -6.0 °F -18.6 °F -13.0 °F 72% 30.55 in 10.0 mi WNW 5.8 mph - N/A   Clear
8:53 AM -2.0 °F -13.9 °F -11.0 °F 66% 30.55 in 10.0 mi West 5.8 mph - N/A   Clear
9:53 AM 1.0 °F -8.7 °F -9.0 °F 63% 30.55 in 10.0 mi SW 4.6 mph - N/A   Clear
10:53 AM 3.9 °F - -7.1 °F 60% 30.55 in 10.0 mi Calm Calm - N/A   Mostly Cloudy
11:53 AM 10.9 °F 1.4 °F 3.0 °F 70% 30.53 in 9.0 mi WSW 5.8 mph - N/A   Mostly Cloudy
12:18 PM 12.0 °F 2.7 °F 1.9 °F 64% 30.46 in 10.0 mi SW 5.8 mph - N/A   Scattered Clouds
12:53 PM 12.0 °F 1.5 °F -2.0 °F 53% 30.50 in 10.0 mi SW 6.9 mph - N/A   Clear
1:53 PM 12.9 °F 0.7 °F -2.9 °F 49% 30.48 in 10.0 mi WSW 9.2 mph - N/A   Clear
2:53 PM 12.9 °F 1.6 °F -4.0 °F 47% 30.47 in 10.0 mi West 8.1 mph - N/A   Clear
3:53 PM 12.9 °F 1.6 °F -4.0 °F 47% 30.46 in 10.0 mi South 8.1 mph - N/A   Clear
4:53 PM 10.9 °F 1.4 °F -5.1 °F 49% 30.46 in 10.0 mi SW 5.8 mph - N/A   Clear
5:53 PM 7.0 °F -1.7 °F -7.1 °F 53% 30.45 in 10.0 mi SW 4.6 mph - N/A   Clear
6:53 PM 6.1 °F -2.8 °F -7.1 °F 55% 30.45 in 10.0 mi SW 4.6 mph - N/A   Clear
7:53 PM 5.0 °F -2.1 °F -7.1 °F 58% 30.44 in 10.0 mi SW 3.5 mph - N/A   Clear
8:53 PM 1.0 °F -6.7 °F -8.0 °F 66% 30.43 in 10.0 mi SSW 3.5 mph - N/A   Clear
9:53 PM -0.0 °F -11.6 °F -9.0 °F 66% 30.43 in 10.0 mi SSW 5.8 mph - N/A   Clear
10:53 PM 1.0 °F -11.7 °F -8.0 °F 66% 30.41 in 10.0 mi South 6.9 mph - N/A   Clear
11:53 PM -0.9 °F -11.0 °F -9.0 °F 69% 30.40 in 10.0 mi South 4.6 mph - N/A   Clear